Time,TemperatureF,DewpointF,PressureIn,WindDirection,WindDirectionDegrees,WindSpeedMPH,WindSpeedGustMPH,Humidity,HourlyPrecipIn,Conditions,Clouds,dailyrainin,SoftwareType,DateUTC
2013-03-06 00:00:00,37.8,0.0,29.38,North,0,0.0,0.0,0,0.00,,,0.67,WUHU216HW,2013-03-06 05:00:00,
2013-03-06 00:05:00,37.8,0.0,29.38,North,0,0.0,0.0,0,0.04,,,0.04,WUHU216HW,2013-03-06 05:05:00,
2013-03-06 00:10:00,37.6,0.0,29.37,North,0,0.0,0.0,0,0.07,,,0.07,WUHU216HW,2013-03-06 05:10:00,
2013-03-06 00:15:00,37.6,0.0,29.36,North,0,0.0,0.0,0,0.07,,,0.07,WUHU216HW,2013-03-06 05:15:00,
2013-03-06 00:20:00,37.4,0.0,29.37,North,0,0.0,0.0,0,0.07,,,0.07,WUHU216HW,2013-03-06 05:20:00,
2013-03-06 00:25:00,37.4,0.0,29.37,North,0,0.0,0.0,0,0.07,,,0.07,WUHU216HW,2013-03-06 05:25:00,
2013-03-06 00:30:00,37.4,0.0,29.37,North,0,0.0,0.0,0,0.09,,,0.09,WUHU216HW,2013-03-06 05:30:00,
2013-03-06 00:35:00,37.4,0.0,29.37,North,0,0.0,0.0,0,0.11,,,0.11,WUHU216HW,2013-03-06 05:35:00,
2013-03-06 00:40:00,37.4,0.0,29.38,North,0,0.0,0.0,0,0.13,,,0.13,WUHU216HW,2013-03-06 05:40:00,
2013-03-06 00:45:00,37.3,0.0,29.37,North,0,0.0,0.0,0,0.15,,,0.15,WUHU216HW,2013-03-06 05:45:00,
2013-03-06 00:50:00,37.3,0.0,29.37,North,0,0.0,0.0,0,0.17,,,0.17,WUHU216HW,2013-03-06 05:50:00,
2013-03-06 00:55:00,37.1,0.0,29.37,North,0,0.0,0.0,0,0.20,,,0.20,WUHU216HW,2013-03-06 05:55:00,
2013-03-06 01:00:00,37.1,0.0,29.37,North,0,0.0,0.0,0,0.20,,,0.20,WUHU216HW,2013-03-06 06:00:00,
2013-03-06 01:05:00,37.1,0.0,29.38,North,0,0.0,0.0,0,0.16,,,0.20,WUHU216HW,2013-03-06 06:05:00,
2013-03-06 01:10:00,37.1,0.0,29.38,North,0,0.0,0.0,0,0.15,,,0.22,WUHU216HW,2013-03-06 06:10:00,
2013-03-06 01:15:00,37.1,0.0,29.37,North,0,0.0,0.0,0,0.15,,,0.22,WUHU216HW,2013-03-06 06:15:00,
2013-03-06 01:20:00,37.1,0.0,29.37,North,0,0.0,0.0,0,0.17,,,0.24,WUHU216HW,2013-03-06 06:20:00,
2013-03-06 01:25:00,37.1,0.0,29.38,North,0,0.0,0.0,0,0.17,,,0.24,WUHU216HW,2013-03-06 06:25:00,
2013-03-06 01:30:00,37.1,0.0,29.38,North,0,0.0,0.0,0,0.15,,,0.24,WUHU216HW,2013-03-06 06:30:00,
2013-03-06 01:35:00,37.1,0.0,29.39,North,0,0.0,0.0,0,0.13,,,0.24,WUHU216HW,2013-03-06 06:35:00,
2013-03-06 01:40:00,37.1,0.0,29.39,North,0,0.0,0.0,0,0.11,,,0.24,WUHU216HW,2013-03-06 06:40:00,
2013-03-06 01:45:00,37.1,0.0,29.39,North,0,0.0,0.0,0,0.09,,,0.24,WUHU216HW,2013-03-06 06:45:00,
2013-03-06 01:50:00,36.9,0.0,29.39,North,0,0.0,0.0,0,0.07,,,0.24,WUHU216HW,2013-03-06 06:50:00,
2013-03-06 01:55:00,36.7,0.0,29.38,North,0,0.0,0.0,0,0.04,,,0.24,WUHU216HW,2013-03-06 06:55:00,
2013-03-06 02:00:00,36.5,0.0,29.38,North,0,0.0,0.0,0,0.06,,,0.26,WUHU216HW,2013-03-06 07:00:00,
2013-03-06 02:05:00,36.5,0.0,29.38,North,0,0.0,0.0,0,0.06,,,0.26,WUHU216HW,2013-03-06 07:05:00,
2013-03-06 02:10:00,36.5,0.0,29.38,North,0,0.0,0.0,0,0.04,,,0.26,WUHU216HW,2013-03-06 07:10:00,
2013-03-06 02:15:00,36.4,0.0,29.38,North,0,0.0,0.0,0,0.04,,,0.26,WUHU216HW,2013-03-06 07:15:00,
2013-03-06 02:20:00,36.4,0.0,29.38,North,0,0.0,0.0,0,0.02,,,0.26,WUHU216HW,2013-03-06 07:20:00,
2013-03-06 02:25:00,36.4,0.0,29.38,North,0,0.0,0.0,0,0.02,,,0.26,WUHU216HW,2013-03-06 07:25:00,
2013-03-06 02:30:00,36.4,0.0,29.38,North,0,0.0,0.0,0,0.04,,,0.28,WUHU216HW,2013-03-06 07:30:00,
2013-03-06 02:35:00,36.4,0.0,29.38,North,0,0.0,0.0,0,0.04,,,0.28,WUHU216HW,2013-03-06 07:35:00,
2013-03-06 02:40:00,36.4,0.0,29.38,North,0,0.0,0.0,0,0.04,,,0.28,WUHU216HW,2013-03-06 07:40:00,
2013-03-06 02:45:00,36.4,0.0,29.38,North,0,0.0,0.0,0,0.04,,,0.28,WUHU216HW,2013-03-06 07:45:00,
2013-03-06 02:50:00,36.5,0.0,29.38,North,0,0.0,0.0,0,0.04,,,0.28,WUHU216HW,2013-03-06 07:50:00,
2013-03-06 02:55:00,36.4,0.0,29.38,North,0,0.0,0.0,0,0.04,,,0.28,WUHU216HW,2013-03-06 07:55:00,
2013-03-06 03:00:00,36.4,0.0,29.38,North,0,0.0,0.0,0,0.02,,,0.28,WUHU216HW,2013-03-06 08:00:00,
2013-03-06 03:05:00,36.4,0.0,29.39,North,0,0.0,0.0,0,0.02,,,0.28,WUHU216HW,2013-03-06 08:05:00,
2013-03-06 03:10:00,36.4,0.0,29.39,North,0,0.0,0.0,0,0.02,,,0.28,WUHU216HW,2013-03-06 08:10:00,
2013-03-06 03:15:00,36.4,0.0,29.39,North,0,0.0,0.0,0,0.02,,,0.28,WUHU216HW,2013-03-06 08:15:00,
2013-03-06 03:20:00,36.2,0.0,29.39,North,0,0.0,0.0,0,0.02,,,0.28,WUHU216HW,2013-03-06 08:20:00,
2013-03-06 03:25:00,36.2,0.0,29.39,North,0,0.0,0.0,0,0.02,,,0.28,WUHU216HW,2013-03-06 08:25:00,
2013-03-06 03:30:00,36.4,0.0,29.39,North,0,0.0,0.0,0,0.00,,,0.28,WUHU216HW,2013-03-06 08:30:00,
2013-03-06 03:35:00,36.2,0.0,29.39,North,0,0.0,0.0,0,0.00,,,0.28,WUHU216HW,2013-03-06 08:35:00,
2013-03-06 03:40:00,35.8,0.0,29.39,North,0,0.0,0.0,0,0.02,,,0.30,WUHU216HW,2013-03-06 08:40:00,
2013-03-06 03:45:00,35.3,0.0,29.39,North,0,0.0,0.0,0,0.02,,,0.30,WUHU216HW,2013-03-06 08:45:00,
2013-03-06 03:50:00,34.9,0.0,29.39,North,0,0.0,0.0,0,0.02,,,0.30,WUHU216HW,2013-03-06 08:50:00,
2013-03-06 03:55:00,34.9,0.0,29.39,North,0,0.0,0.0,0,0.02,,,0.30,WUHU216HW,2013-03-06 08:55:00,
2013-03-06 04:00:00,34.2,0.0,29.39,North,0,0.0,0.0,0,0.02,,,0.30,WUHU216HW,2013-03-06 09:00:00,
2013-03-06 04:05:00,34.6,0.0,29.39,North,0,0.0,0.0,0,0.02,,,0.30,WUHU216HW,2013-03-06 09:05:00,
2013-03-06 04:10:00,34.2,0.0,29.40,North,0,0.0,0.0,0,0.02,,,0.30,WUHU216HW,2013-03-06 09:10:00,
2013-03-06 04:15:00,34.2,0.0,29.40,North,0,0.0,0.0,0,0.02,,,0.30,WUHU216HW,2013-03-06 09:15:00,
2013-03-06 04:20:00,34.0,0.0,29.40,North,0,0.0,0.0,0,0.02,,,0.30,WUHU216HW,2013-03-06 09:20:00,
2013-03-06 04:25:00,33.3,0.0,29.40,North,0,0.0,0.0,0,0.02,,,0.30,WUHU216HW,2013-03-06 09:25:00,
2013-03-06 04:30:00,33.1,0.0,29.40,North,0,0.0,0.0,0,0.02,,,0.30,WUHU216HW,2013-03-06 09:30:00,
2013-03-06 04:35:00,33.7,0.0,29.40,North,0,0.0,0.0,0,0.02,,,0.30,WUHU216HW,2013-03-06 09:35:00,
2013-03-06 04:40:00,33.3,0.0,29.40,North,0,0.0,0.0,0,0.00,,,0.30,WUHU216HW,2013-03-06 09:40:00,
2013-03-06 04:45:00,33.3,0.0,29.40,North,0,0.0,0.0,0,0.00,,,0.30,WUHU216HW,2013-03-06 09:45:00,
2013-03-06 04:50:00,32.8,0.0,29.41,North,0,0.0,0.0,0,0.00,,,0.30,WUHU216HW,2013-03-06 09:50:00,
2013-03-06 04:55:00,32.6,0.0,29.41,North,0,0.0,0.0,0,0.00,,,0.30,WUHU216HW,2013-03-06 09:55:00,
2013-03-06 05:00:00,32.0,0.0,29.41,North,0,0.0,0.0,0,0.00,,,0.30,WUHU216HW,2013-03-06 10:00:00,
2013-03-06 05:05:00,32.4,0.0,29.41,North,0,0.0,0.0,0,0.00,,,0.30,WUHU216HW,2013-03-06 10:05:00,
2013-03-06 05:10:00,32.0,0.0,29.41,North,0,0.0,0.0,0,0.00,,,0.30,WUHU216HW,2013-03-06 10:10:00,
2013-03-06 05:15:00,31.3,0.0,29.41,North,0,0.0,0.0,0,0.00,,,0.30,WUHU216HW,2013-03-06 10:15:00,
2013-03-06 05:20:00,31.0,0.0,29.41,North,0,0.0,0.0,0,0.00,,,0.30,WUHU216HW,2013-03-06 10:20:00,
2013-03-06 05:25:00,31.0,0.0,29.41,North,0,0.0,0.0,0,0.00,,,0.30,WUHU216HW,2013-03-06 10:25:00,
2013-03-06 05:30:00,31.0,0.0,29.41,North,0,0.0,0.0,0,0.00,,,0.30,WUHU216HW,2013-03-06 10:30:00,
2013-03-06 05:35:00,30.8,0.0,29.42,North,0,0.0,0.0,0,0.00,,,0.30,WUHU216HW,2013-03-06 10:35:00,
2013-03-06 05:40:00,30.4,0.0,29.42,North,0,0.0,0.0,0,0.00,,,0.30,WUHU216HW,2013-03-06 10:40:00,
2013-03-06 05:45:00,30.4,0.0,29.42,North,0,0.0,0.0,0,0.00,,,0.30,WUHU216HW,2013-03-06 10:45:00,
2013-03-06 05:50:00,30.2,0.0,29.42,North,0,0.0,0.0,0,0.00,,,0.30,WUHU216HW,2013-03-06 10:50:00,
2013-03-06 05:55:00,30.4,0.0,29.43,North,0,0.0,0.0,0,0.00,,,0.30,WUHU216HW,2013-03-06 10:55:00,
2013-03-06 06:00:00,30.2,0.0,29.43,North,0,0.0,0.0,0,0.00,,,0.30,WUHU216HW,2013-03-06 11:00:00,
2013-03-06 06:05:00,29.9,0.0,29.43,North,0,0.0,0.0,0,0.00,,,0.30,WUHU216HW,2013-03-06 11:05:00,
2013-03-06 06:10:00,29.9,0.0,29.43,North,0,0.0,0.0,0,0.00,,,0.30,WUHU216HW,2013-03-06 11:10:00,
2013-03-06 06:15:00,29.9,0.0,29.43,North,0,0.0,0.0,0,0.00,,,0.30,WUHU216HW,2013-03-06 11:15:00,
2013-03-06 06:20:00,29.7,0.0,29.43,North,0,0.0,0.0,0,0.00,,,0.30,WUHU216HW,2013-03-06 11:20:00,
2013-03-06 06:25:00,29.7,0.0,29.43,North,0,0.0,0.0,0,0.00,,,0.30,WUHU216HW,2013-03-06 11:25:00,
2013-03-06 06:30:00,29.3,0.0,29.44,North,0,0.0,0.0,0,0.00,,,0.30,WUHU216HW,2013-03-06 11:30:00,
2013-03-06 06:35:00,29.3,0.0,29.44,North,0,0.0,0.0,0,0.00,,,0.30,WUHU216HW,2013-03-06 11:35:00,
2013-03-06 06:40:00,29.3,0.0,29.43,North,0,0.0,0.0,0,0.00,,,0.30,WUHU216HW,2013-03-06 11:40:00,
2013-03-06 06:45:00,29.2,0.0,29.43,North,0,0.0,0.0,0,0.00,,,0.30,WUHU216HW,2013-03-06 11:45:00,
2013-03-06 06:50:00,29.2,0.0,29.44,North,0,0.0,0.0,0,0.00,,,0.30,WUHU216HW,2013-03-06 11:50:00,
2013-03-06 06:55:00,29.3,0.0,29.44,North,0,0.0,0.0,0,0.00,,,0.30,WUHU216HW,2013-03-06 11:55:00,
2013-03-06 07:00:00,29.2,0.0,29.44,North,0,0.0,0.0,0,0.00,,,0.30,WUHU216HW,2013-03-06 12:00:00,
2013-03-06 07:05:00,29.2,0.0,29.44,North,0,0.0,0.0,0,0.00,,,0.30,WUHU216HW,2013-03-06 12:05:00,
2013-03-06 07:10:00,29.3,0.0,29.44,North,0,0.0,0.0,0,0.00,,,0.30,WUHU216HW,2013-03-06 12:10:00,
2013-03-06 07:15:00,29.5,0.0,29.45,North,0,0.0,0.0,0,0.00,,,0.30,WUHU216HW,2013-03-06 12:15:00,
2013-03-06 07:20:00,29.5,0.0,29.45,North,0,0.0,0.0,0,0.00,,,0.30,WUHU216HW,2013-03-06 12:20:00,
2013-03-06 07:25:00,29.3,0.0,29.46,North,0,0.0,0.0,0,0.00,,,0.30,WUHU216HW,2013-03-06 12:25:00,
2013-03-06 07:30:00,29.3,0.0,29.46,North,0,0.0,0.0,0,0.00,,,0.30,WUHU216HW,2013-03-06 12:30:00,
2013-03-06 07:35:00,29.5,0.0,29.46,North,0,0.0,0.0,0,0.00,,,0.30,WUHU216HW,2013-03-06 12:35:00,
2013-03-06 07:40:00,29.5,0.0,29.47,North,0,0.0,0.0,0,0.00,,,0.30,WUHU216HW,2013-03-06 12:40:00,
2013-03-06 07:45:00,29.9,0.0,29.47,North,0,0.0,0.0,0,0.00,,,0.30,WUHU216HW,2013-03-06 12:45:00,
2013-03-06 07:51:00,29.9,0.0,29.47,North,0,0.0,0.0,0,0.00,,,0.30,WUHU216HW,2013-03-06 12:51:00,
2013-03-06 07:56:00,30.1,0.0,29.47,North,0,0.0,0.0,0,0.00,,,0.30,WUHU216HW,2013-03-06 12:56:00,
2013-03-06 08:01:00,29.9,0.0,29.48,North,0,0.0,0.0,0,0.00,,,0.30,WUHU216HW,2013-03-06 13:01:00,
2013-03-06 08:06:00,29.9,0.0,29.48,North,0,0.0,0.0,0,0.00,,,0.30,WUHU216HW,2013-03-06 13:06:00,
2013-03-06 08:11:00,30.1,0.0,29.48,North,0,0.0,0.0,0,0.00,,,0.30,WUHU216HW,2013-03-06 13:11:00,
2013-03-06 08:16:00,30.2,0.0,29.48,North,0,0.0,0.0,0,0.00,,,0.30,WUHU216HW,2013-03-06 13:16:00,
2013-03-06 08:21:00,30.6,0.0,29.49,North,0,0.0,0.0,0,0.00,,,0.30,WUHU216HW,2013-03-06 13:21:00,
2013-03-06 08:26:00,30.6,0.0,29.49,North,0,0.0,0.0,0,0.00,,,0.30,WUHU216HW,2013-03-06 13:26:00,
2013-03-06 08:31:00,31.0,0.0,29.49,North,0,0.0,0.0,0,0.00,,,0.30,WUHU216HW,2013-03-06 13:31:00,
2013-03-06 08:36:00,31.1,0.0,29.49,North,0,0.0,0.0,0,0.00,,,0.30,WUHU216HW,2013-03-06 13:36:00,
2013-03-06 08:41:00,31.1,0.0,29.50,North,0,0.0,0.0,0,0.00,,,0.30,WUHU216HW,2013-03-06 13:41:00,
2013-03-06 08:46:00,31.3,0.0,29.50,North,0,0.0,0.0,0,0.00,,,0.30,WUHU216HW,2013-03-06 13:46:00,
2013-03-06 08:51:00,31.7,0.0,29.50,North,0,0.0,0.0,0,0.00,,,0.30,WUHU216HW,2013-03-06 13:51:00,
2013-03-06 08:56:00,31.9,0.0,29.50,North,0,0.0,0.0,0,0.00,,,0.30,WUHU216HW,2013-03-06 13:56:00,
2013-03-06 09:01:00,31.5,0.0,29.50,North,0,0.0,0.0,0,0.00,,,0.30,WUHU216HW,2013-03-06 14:01:00,
2013-03-06 09:06:00,31.5,0.0,29.50,North,0,0.0,0.0,0,0.00,,,0.30,WUHU216HW,2013-03-06 14:06:00,
2013-03-06 09:11:00,31.3,0.0,29.50,North,0,0.0,0.0,0,0.00,,,0.30,WUHU216HW,2013-03-06 14:11:00,
2013-03-06 09:16:00,32.0,0.0,29.50,North,0,0.0,0.0,0,0.00,,,0.30,WUHU216HW,2013-03-06 14:16:00,
2013-03-06 09:21:00,32.4,0.0,29.51,North,0,0.0,0.0,0,0.00,,,0.30,WUHU216HW,2013-03-06 14:21:00,
2013-03-06 09:26:00,32.4,0.0,29.50,North,0,0.0,0.0,0,0.00,,,0.30,WUHU216HW,2013-03-06 14:26:00,
2013-03-06 09:31:00,32.9,0.0,29.51,North,0,0.0,0.0,0,0.00,,,0.30,WUHU216HW,2013-03-06 14:31:00,
2013-03-06 09:36:00,32.8,0.0,29.51,North,0,0.0,0.0,0,0.00,,,0.30,WUHU216HW,2013-03-06 14:36:00,
2013-03-06 09:41:00,33.5,0.0,29.52,North,0,0.0,0.0,0,0.00,,,0.30,WUHU216HW,2013-03-06 14:41:00,
2013-03-06 09:46:00,34.4,0.0,29.52,North,0,0.0,0.0,0,0.00,,,0.30,WUHU216HW,2013-03-06 14:46:00,
2013-03-06 09:51:00,33.3,0.0,29.52,North,0,0.0,0.0,0,0.00,,,0.30,WUHU216HW,2013-03-06 14:51:00,
2013-03-06 09:56:00,33.5,0.0,29.52,North,0,0.0,0.0,0,0.00,,,0.30,WUHU216HW,2013-03-06 14:56:00,
2013-03-06 10:01:00,33.1,0.0,29.52,North,0,0.0,0.0,0,0.00,,,0.30,WUHU216HW,2013-03-06 15:01:00,
2013-03-06 10:06:00,34.9,0.0,29.52,North,0,0.0,0.0,0,0.00,,,0.30,WUHU216HW,2013-03-06 15:06:00,
2013-03-06 10:11:00,34.7,0.0,29.52,North,0,0.0,0.0,0,0.00,,,0.30,WUHU216HW,2013-03-06 15:11:00,
2013-03-06 10:16:00,34.7,0.0,29.53,North,0,0.0,0.0,0,0.00,,,0.30,WUHU216HW,2013-03-06 15:16:00,
2013-03-06 10:21:00,35.1,0.0,29.53,North,0,0.0,0.0,0,0.00,,,0.30,WUHU216HW,2013-03-06 15:21:00,
2013-03-06 10:26:00,35.6,0.0,29.53,North,0,0.0,0.0,0,0.00,,,0.30,WUHU216HW,2013-03-06 15:26:00,
2013-03-06 10:31:00,37.1,0.0,29.53,North,0,0.0,0.0,0,0.00,,,0.30,WUHU216HW,2013-03-06 15:31:00,
2013-03-06 10:36:00,36.0,0.0,29.53,North,0,0.0,0.0,0,0.00,,,0.30,WUHU216HW,2013-03-06 15:36:00,
2013-03-06 10:41:00,36.5,0.0,29.53,North,0,0.0,0.0,0,0.00,,,0.30,WUHU216HW,2013-03-06 15:41:00,
2013-03-06 10:46:00,36.7,0.0,29.54,North,0,0.0,0.0,0,0.00,,,0.30,WUHU216HW,2013-03-06 15:46:00,
2013-03-06 10:51:00,38.2,0.0,29.54,North,0,0.0,0.0,0,0.00,,,0.30,WUHU216HW,2013-03-06 15:51:00,
2013-03-06 10:56:00,37.3,0.0,29.54,North,0,0.0,0.0,0,0.00,,,0.30,WUHU216HW,2013-03-06 15:56:00,
2013-03-06 11:01:00,36.5,0.0,29.54,North,0,0.0,0.0,0,0.00,,,0.30,WUHU216HW,2013-03-06 16:01:00,
2013-03-06 11:06:00,38.3,0.0,29.54,North,0,0.0,0.0,0,0.00,,,0.30,WUHU216HW,2013-03-06 16:06:00,
2013-03-06 11:11:00,38.2,0.0,29.54,North,0,0.0,0.0,0,0.00,,,0.30,WUHU216HW,2013-03-06 16:11:00,
2013-03-06 11:16:00,39.1,0.0,29.54,North,0,0.0,0.0,0,0.00,,,0.30,WUHU216HW,2013-03-06 16:16:00,
2013-03-06 11:21:00,38.9,0.0,29.54,North,0,0.0,0.0,0,0.00,,,0.30,WUHU216HW,2013-03-06 16:21:00,
2013-03-06 11:26:00,39.2,0.0,29.54,North,0,0.0,0.0,0,0.00,,,0.30,WUHU216HW,2013-03-06 16:26:00,
2013-03-06 11:31:00,39.8,0.0,29.54,North,0,0.0,0.0,0,0.00,,,0.30,WUHU216HW,2013-03-06 16:31:00,
2013-03-06 11:36:00,41.2,0.0,29.54,North,0,0.0,0.0,0,0.00,,,0.30,WUHU216HW,2013-03-06 16:36:00,
2013-03-06 11:41:00,41.2,0.0,29.54,North,0,0.0,0.0,0,0.00,,,0.30,WUHU216HW,2013-03-06 16:41:00,
2013-03-06 11:46:00,41.2,0.0,29.54,North,0,0.0,0.0,0,0.00,,,0.30,WUHU216HW,2013-03-06 16:46:00,
2013-03-06 11:51:00,41.8,0.0,29.55,North,0,0.0,0.0,0,0.00,,,0.30,WUHU216HW,2013-03-06 16:51:00,
2013-03-06 11:56:00,41.2,0.0,29.55,North,0,0.0,0.0,0,0.00,,,0.30,WUHU216HW,2013-03-06 16:56:00,
2013-03-06 12:01:00,40.7,0.0,29.55,North,0,0.0,0.0,0,0.00,,,0.30,WUHU216HW,2013-03-06 17:01:00,
2013-03-06 12:06:00,41.9,0.0,29.56,North,0,0.0,0.0,0,0.00,,,0.30,WUHU216HW,2013-03-06 17:06:00,
2013-03-06 12:11:00,43.0,0.0,29.55,North,0,0.0,0.0,0,0.00,,,0.30,WUHU216HW,2013-03-06 17:11:00,
2013-03-06 12:16:00,43.0,0.0,29.56,North,0,0.0,0.0,0,0.00,,,0.30,WUHU216HW,2013-03-06 17:16:00,
2013-03-06 12:21:00,42.7,0.0,29.56,North,0,0.0,0.0,0,0.00,,,0.30,WUHU216HW,2013-03-06 17:21:00,
2013-03-06 12:26:00,42.5,0.0,29.55,North,0,0.0,0.0,0,0.00,,,0.30,WUHU216HW,2013-03-06 17:26:00,
2013-03-06 12:31:00,43.2,0.0,29.55,North,0,0.0,0.0,0,0.00,,,0.30,WUHU216HW,2013-03-06 17:31:00,
2013-03-06 12:36:00,42.8,0.0,29.55,North,0,0.0,0.0,0,0.00,,,0.30,WUHU216HW,2013-03-06 17:36:00,
2013-03-06 12:41:00,43.7,0.0,29.55,North,0,0.0,0.0,0,0.00,,,0.30,WUHU216HW,2013-03-06 17:41:00,
2013-03-06 12:46:00,43.9,0.0,29.56,North,0,0.0,0.0,0,0.00,,,0.30,WUHU216HW,2013-03-06 17:46:00,
2013-03-06 12:51:00,43.9,0.0,29.56,North,0,0.0,0.0,0,0.00,,,0.30,WUHU216HW,2013-03-06 17:51:00,
2013-03-06 12:56:00,44.1,0.0,29.56,North,0,0.0,0.0,0,0.00,,,0.30,WUHU216HW,2013-03-06 17:56:00,
2013-03-06 13:01:00,44.3,0.0,29.56,North,0,0.0,0.0,0,0.00,,,0.30,WUHU216HW,2013-03-06 18:01:00,
2013-03-06 13:06:00,44.6,0.0,29.56,North,0,0.0,0.0,0,0.00,,,0.30,WUHU216HW,2013-03-06 18:06:00,
2013-03-06 13:11:00,44.8,0.0,29.55,North,0,0.0,0.0,0,0.00,,,0.30,WUHU216HW,2013-03-06 18:11:00,
2013-03-06 13:16:00,45.2,0.0,29.55,North,0,0.0,0.0,0,0.00,,,0.30,WUHU216HW,2013-03-06 18:16:00,
2013-03-06 13:21:00,45.4,0.0,29.55,North,0,0.0,0.0,0,0.00,,,0.30,WUHU216HW,2013-03-06 18:21:00,
2013-03-06 13:26:00,44.6,0.0,29.55,North,0,0.0,0.0,0,0.00,,,0.30,WUHU216HW,2013-03-06 18:26:00,
2013-03-06 13:31:00,45.0,0.0,29.56,North,0,0.0,0.0,0,0.00,,,0.30,WUHU216HW,2013-03-06 18:31:00,
2013-03-06 13:36:00,45.5,0.0,29.56,North,0,0.0,0.0,0,0.00,,,0.30,WUHU216HW,2013-03-06 18:36:00,
2013-03-06 13:41:00,44.6,0.0,29.56,North,0,0.0,0.0,0,0.00,,,0.30,WUHU216HW,2013-03-06 18:41:00,
2013-03-06 13:46:00,45.0,0.0,29.56,North,0,0.0,0.0,0,0.00,,,0.30,WUHU216HW,2013-03-06 18:46:00,
2013-03-06 13:51:00,45.7,0.0,29.56,North,0,0.0,0.0,0,0.00,,,0.30,WUHU216HW,2013-03-06 18:51:00,
2013-03-06 13:56:00,45.0,0.0,29.56,North,0,0.0,0.0,0,0.00,,,0.30,WUHU216HW,2013-03-06 18:56:00,
2013-03-06 14:01:00,45.4,0.0,29.56,North,0,0.0,0.0,0,0.00,,,0.30,WUHU216HW,2013-03-06 19:01:00,
2013-03-06 14:06:00,45.9,0.0,29.56,North,0,0.0,0.0,0,0.00,,,0.30,WUHU216HW,2013-03-06 19:06:00,
2013-03-06 14:11:00,45.4,0.0,29.56,North,0,0.0,0.0,0,0.00,,,0.30,WUHU216HW,2013-03-06 19:11:00,
2013-03-06 14:16:00,45.2,0.0,29.57,North,0,0.0,0.0,0,0.00,,,0.30,WUHU216HW,2013-03-06 19:16:00,
2013-03-06 14:21:00,45.5,0.0,29.56,North,0,0.0,0.0,0,0.00,,,0.30,WUHU216HW,2013-03-06 19:21:00,
2013-03-06 14:26:00,45.7,0.0,29.56,North,0,0.0,0.0,0,0.00,,,0.30,WUHU216HW,2013-03-06 19:26:00,
2013-03-06 14:31:00,45.7,0.0,29.57,North,0,0.0,0.0,0,0.00,,,0.30,WUHU216HW,2013-03-06 19:31:00,
2013-03-06 14:36:00,45.7,0.0,29.57,North,0,0.0,0.0,0,0.00,,,0.30,WUHU216HW,2013-03-06 19:36:00,
2013-03-06 14:41:00,46.3,0.0,29.57,North,0,0.0,0.0,0,0.00,,,0.30,WUHU216HW,2013-03-06 19:41:00,
2013-03-06 14:46:00,46.3,0.0,29.58,North,0,0.0,0.0,0,0.00,,,0.30,WUHU216HW,2013-03-06 19:46:00,
2013-03-06 14:51:00,46.1,0.0,29.58,North,0,0.0,0.0,0,0.00,,,0.30,WUHU216HW,2013-03-06 19:51:00,
2013-03-06 14:56:00,46.1,0.0,29.59,North,0,0.0,0.0,0,0.00,,,0.30,WUHU216HW,2013-03-06 19:56:00,
2013-03-06 15:01:00,46.4,0.0,29.59,North,0,0.0,0.0,0,0.00,,,0.30,WUHU216HW,2013-03-06 20:01:00,
2013-03-06 15:06:00,46.8,0.0,29.60,North,0,0.0,0.0,0,0.00,,,0.30,WUHU216HW,2013-03-06 20:06:00,
2013-03-06 15:11:00,45.5,0.0,29.60,North,0,0.0,0.0,0,0.00,,,0.30,WUHU216HW,2013-03-06 20:11:00,
2013-03-06 15:16:00,44.6,0.0,29.61,North,0,0.0,0.0,0,0.00,,,0.30,WUHU216HW,2013-03-06 20:16:00,
2013-03-06 15:21:00,45.0,0.0,29.62,North,0,0.0,0.0,0,0.00,,,0.30,WUHU216HW,2013-03-06 20:21:00,
2013-03-06 15:26:00,44.5,0.0,29.62,North,0,0.0,0.0,0,0.00,,,0.30,WUHU216HW,2013-03-06 20:26:00,
2013-03-06 15:31:00,43.9,0.0,29.62,North,0,0.0,0.0,0,0.00,,,0.30,WUHU216HW,2013-03-06 20:31:00,
2013-03-06 15:36:00,43.6,0.0,29.63,North,0,0.0,0.0,0,0.00,,,0.30,WUHU216HW,2013-03-06 20:36:00,
2013-03-06 15:41:00,43.6,0.0,29.63,North,0,0.0,0.0,0,0.00,,,0.30,WUHU216HW,2013-03-06 20:41:00,
2013-03-06 15:46:00,43.9,0.0,29.64,North,0,0.0,0.0,0,0.00,,,0.30,WUHU216HW,2013-03-06 20:46:00,
2013-03-06 15:51:00,43.9,0.0,29.65,North,0,0.0,0.0,0,0.00,,,0.30,WUHU216HW,2013-03-06 20:51:00,
2013-03-06 15:56:00,43.9,0.0,29.65,North,0,0.0,0.0,0,0.00,,,0.30,WUHU216HW,2013-03-06 20:56:00,
2013-03-06 16:01:00,43.7,0.0,29.66,North,0,0.0,0.0,0,0.00,,,0.30,WUHU216HW,2013-03-06 21:01:00,
2013-03-06 16:06:00,43.7,0.0,29.66,North,0,0.0,0.0,0,0.00,,,0.30,WUHU216HW,2013-03-06 21:06:00,
2013-03-06 16:11:00,43.7,0.0,29.66,North,0,0.0,0.0,0,0.00,,,0.30,WUHU216HW,2013-03-06 21:11:00,
2013-03-06 16:16:00,43.6,0.0,29.67,North,0,0.0,0.0,0,0.00,,,0.30,WUHU216HW,2013-03-06 21:16:00,
2013-03-06 16:21:00,43.2,0.0,29.67,North,0,0.0,0.0,0,0.00,,,0.30,WUHU216HW,2013-03-06 21:21:00,
2013-03-06 16:26:00,43.2,0.0,29.67,North,0,0.0,0.0,0,0.00,,,0.30,WUHU216HW,2013-03-06 21:26:00,
2013-03-06 16:31:00,43.0,0.0,29.67,North,0,0.0,0.0,0,0.00,,,0.30,WUHU216HW,2013-03-06 21:31:00,
2013-03-06 16:36:00,43.0,0.0,29.68,North,0,0.0,0.0,0,0.00,,,0.30,WUHU216HW,2013-03-06 21:36:00,
2013-03-06 16:41:00,42.8,0.0,29.68,North,0,0.0,0.0,0,0.00,,,0.30,WUHU216HW,2013-03-06 21:41:00,
2013-03-06 16:46:00,42.5,0.0,29.69,North,0,0.0,0.0,0,0.00,,,0.30,WUHU216HW,2013-03-06 21:46:00,
2013-03-06 16:51:00,42.3,0.0,29.69,North,0,0.0,0.0,0,0.00,,,0.30,WUHU216HW,2013-03-06 21:51:00,
2013-03-06 16:56:00,42.1,0.0,29.69,North,0,0.0,0.0,0,0.00,,,0.30,WUHU216HW,2013-03-06 21:56:00,
2013-03-06 17:01:00,42.1,0.0,29.70,North,0,0.0,0.0,0,0.00,,,0.30,WUHU216HW,2013-03-06 22:01:00,
2013-03-06 17:06:00,42.1,0.0,29.70,North,0,0.0,0.0,0,0.00,,,0.30,WUHU216HW,2013-03-06 22:06:00,
2013-03-06 17:11:00,42.1,0.0,29.71,North,0,0.0,0.0,0,0.00,,,0.30,WUHU216HW,2013-03-06 22:11:00,
2013-03-06 17:16:00,42.1,0.0,29.71,North,0,0.0,0.0,0,0.00,,,0.30,WUHU216HW,2013-03-06 22:16:00,
2013-03-06 17:21:00,42.1,0.0,29.71,North,0,0.0,0.0,0,0.00,,,0.30,WUHU216HW,2013-03-06 22:21:00,
2013-03-06 17:26:00,42.1,0.0,29.72,North,0,0.0,0.0,0,0.00,,,0.30,WUHU216HW,2013-03-06 22:26:00,
2013-03-06 17:31:00,42.3,0.0,29.72,North,0,0.0,0.0,0,0.00,,,0.30,WUHU216HW,2013-03-06 22:31:00,
2013-03-06 17:36:00,42.1,0.0,29.72,North,0,0.0,0.0,0,0.00,,,0.30,WUHU216HW,2013-03-06 22:36:00,
2013-03-06 17:41:00,41.8,0.0,29.72,North,0,0.0,0.0,0,0.00,,,0.30,WUHU216HW,2013-03-06 22:41:00,
2013-03-06 17:46:00,41.9,0.0,29.73,North,0,0.0,0.0,0,0.00,,,0.30,WUHU216HW,2013-03-06 22:46:00,
2013-03-06 17:51:00,41.4,0.0,29.73,North,0,0.0,0.0,0,0.00,,,0.30,WUHU216HW,2013-03-06 22:51:00,
2013-03-06 17:56:00,40.7,0.0,29.73,North,0,0.0,0.0,0,0.00,,,0.30,WUHU216HW,2013-03-06 22:56:00,
2013-03-06 18:00:00,40.1,0.0,29.74,North,0,0.0,0.0,0,0.00,,,0.30,WUHU216HW,2013-03-06 23:00:00,
2013-03-06 18:05:00,39.6,0.0,29.75,North,0,0.0,0.0,0,0.00,,,0.30,WUHU216HW,2013-03-06 23:05:00,
2013-03-06 18:10:00,39.4,0.0,29.75,North,0,0.0,0.0,0,0.00,,,0.30,WUHU216HW,2013-03-06 23:10:00,
2013-03-06 18:15:00,39.1,0.0,29.75,North,0,0.0,0.0,0,0.00,,,0.30,WUHU216HW,2013-03-06 23:15:00,
2013-03-06 18:21:00,38.5,0.0,29.75,North,0,0.0,0.0,0,0.00,,,0.30,WUHU216HW,2013-03-06 23:21:00,
2013-03-06 18:26:00,38.0,0.0,29.76,North,0,0.0,0.0,0,0.00,,,0.30,WUHU216HW,2013-03-06 23:26:00,
2013-03-06 18:31:00,37.8,0.0,29.76,North,0,0.0,0.0,0,0.00,,,0.30,WUHU216HW,2013-03-06 23:31:00,
2013-03-06 18:36:00,37.3,0.0,29.77,North,0,0.0,0.0,0,0.00,,,0.30,WUHU216HW,2013-03-06 23:36:00,
2013-03-06 18:41:00,36.9,0.0,29.77,North,0,0.0,0.0,0,0.00,,,0.30,WUHU216HW,2013-03-06 23:41:00,
2013-03-06 18:46:00,36.5,0.0,29.77,North,0,0.0,0.0,0,0.00,,,0.30,WUHU216HW,2013-03-06 23:46:00,
2013-03-06 18:51:00,36.2,0.0,29.78,North,0,0.0,0.0,0,0.00,,,0.30,WUHU216HW,2013-03-06 23:51:00,
2013-03-06 18:56:00,35.8,0.0,29.78,North,0,0.0,0.0,0,0.00,,,0.30,WUHU216HW,2013-03-06 23:56:00,
2013-03-06 19:01:00,35.8,0.0,29.78,North,0,0.0,0.0,0,0.00,,,0.30,WUHU216HW,2013-03-07 00:01:00,
2013-03-06 19:06:00,35.6,0.0,29.78,North,0,0.0,0.0,0,0.00,,,0.30,WUHU216HW,2013-03-07 00:06:00,
2013-03-06 19:11:00,35.6,0.0,29.79,North,0,0.0,0.0,0,0.00,,,0.30,WUHU216HW,2013-03-07 00:11:00,
2013-03-06 19:16:00,35.3,0.0,29.79,North,0,0.0,0.0,0,0.00,,,0.30,WUHU216HW,2013-03-07 00:16:00,
2013-03-06 19:21:00,34.9,0.0,29.79,North,0,0.0,0.0,0,0.00,,,0.30,WUHU216HW,2013-03-07 00:21:00,
2013-03-06 19:26:00,34.7,0.0,29.79,North,0,0.0,0.0,0,0.00,,,0.30,WUHU216HW,2013-03-07 00:26:00,
2013-03-06 19:31:00,34.6,0.0,29.79,North,0,0.0,0.0,0,0.00,,,0.30,WUHU216HW,2013-03-07 00:31:00,
2013-03-06 19:36:00,34.2,0.0,29.79,North,0,0.0,0.0,0,0.00,,,0.30,WUHU216HW,2013-03-07 00:36:00,
2013-03-06 19:41:00,34.2,0.0,29.79,North,0,0.0,0.0,0,0.00,,,0.30,WUHU216HW,2013-03-07 00:41:00,
2013-03-06 19:46:00,34.4,0.0,29.80,North,0,0.0,0.0,0,0.00,,,0.30,WUHU216HW,2013-03-07 00:46:00,
2013-03-06 19:51:00,34.2,0.0,29.80,North,0,0.0,0.0,0,0.00,,,0.30,WUHU216HW,2013-03-07 00:51:00,
2013-03-06 19:56:00,33.8,0.0,29.80,North,0,0.0,0.0,0,0.00,,,0.30,WUHU216HW,2013-03-07 00:56:00,
2013-03-06 20:01:00,33.7,0.0,29.80,North,0,0.0,0.0,0,0.00,,,0.30,WUHU216HW,2013-03-07 01:01:00,
2013-03-06 20:06:00,33.5,0.0,29.80,North,0,0.0,0.0,0,0.00,,,0.30,WUHU216HW,2013-03-07 01:06:00,
2013-03-06 20:11:00,33.1,0.0,29.80,North,0,0.0,0.0,0,0.00,,,0.30,WUHU216HW,2013-03-07 01:11:00,
2013-03-06 20:16:00,32.9,0.0,29.80,North,0,0.0,0.0,0,0.00,,,0.30,WUHU216HW,2013-03-07 01:16:00,
2013-03-06 20:21:00,32.2,0.0,29.80,North,0,0.0,0.0,0,0.00,,,0.30,WUHU216HW,2013-03-07 01:21:00,
2013-03-06 20:26:00,31.5,0.0,29.80,North,0,0.0,0.0,0,0.00,,,0.30,WUHU216HW,2013-03-07 01:26:00,
2013-03-06 20:31:00,31.3,0.0,29.80,North,0,0.0,0.0,0,0.00,,,0.30,WUHU216HW,2013-03-07 01:31:00,
2013-03-06 20:36:00,31.3,0.0,29.80,North,0,0.0,0.0,0,0.00,,,0.30,WUHU216HW,2013-03-07 01:36:00,
2013-03-06 20:41:00,31.3,0.0,29.81,North,0,0.0,0.0,0,0.00,,,0.30,WUHU216HW,2013-03-07 01:41:00,
2013-03-06 20:46:00,31.0,0.0,29.81,North,0,0.0,0.0,0,0.00,,,0.30,WUHU216HW,2013-03-07 01:46:00,
2013-03-06 20:51:00,31.0,0.0,29.82,North,0,0.0,0.0,0,0.00,,,0.30,WUHU216HW,2013-03-07 01:51:00,
2013-03-06 20:56:00,30.8,0.0,29.82,North,0,0.0,0.0,0,0.00,,,0.30,WUHU216HW,2013-03-07 01:56:00,
2013-03-06 21:01:00,30.6,0.0,29.82,North,0,0.0,0.0,0,0.00,,,0.30,WUHU216HW,2013-03-07 02:01:00,
2013-03-06 21:06:00,30.4,0.0,29.82,North,0,0.0,0.0,0,0.00,,,0.30,WUHU216HW,2013-03-07 02:06:00,
2013-03-06 21:11:00,30.1,0.0,29.82,North,0,0.0,0.0,0,0.00,,,0.30,WUHU216HW,2013-03-07 02:11:00,
2013-03-06 21:16:00,29.7,0.0,29.83,North,0,0.0,0.0,0,0.00,,,0.30,WUHU216HW,2013-03-07 02:16:00,
2013-03-06 21:21:00,29.3,0.0,29.82,North,0,0.0,0.0,0,0.00,,,0.30,WUHU216HW,2013-03-07 02:21:00,
2013-03-06 21:26:00,28.1,0.0,29.82,North,0,0.0,0.0,0,0.00,,,0.30,WUHU216HW,2013-03-07 02:26:00,
2013-03-06 21:31:00,27.9,0.0,29.82,North,0,0.0,0.0,0,0.00,,,0.30,WUHU216HW,2013-03-07 02:31:00,
2013-03-06 21:36:00,28.1,0.0,29.83,North,0,0.0,0.0,0,0.00,,,0.30,WUHU216HW,2013-03-07 02:36:00,
2013-03-06 21:41:00,28.3,0.0,29.83,North,0,0.0,0.0,0,0.00,,,0.30,WUHU216HW,2013-03-07 02:41:00,
2013-03-06 21:46:00,28.3,0.0,29.83,North,0,0.0,0.0,0,0.00,,,0.30,WUHU216HW,2013-03-07 02:46:00,
2013-03-06 21:51:00,28.4,0.0,29.83,North,0,0.0,0.0,0,0.00,,,0.30,WUHU216HW,2013-03-07 02:51:00,
2013-03-06 21:56:00,28.4,0.0,29.83,North,0,0.0,0.0,0,0.00,,,0.30,WUHU216HW,2013-03-07 02:56:00,
2013-03-06 22:01:00,28.4,0.0,29.83,North,0,0.0,0.0,0,0.00,,,0.30,WUHU216HW,2013-03-07 03:01:00,
2013-03-06 22:06:00,27.7,0.0,29.83,North,0,0.0,0.0,0,0.00,,,0.30,WUHU216HW,2013-03-07 03:06:00,
2013-03-06 22:11:00,27.7,0.0,29.83,North,0,0.0,0.0,0,0.00,,,0.30,WUHU216HW,2013-03-07 03:11:00,
2013-03-06 22:16:00,27.7,0.0,29.83,North,0,0.0,0.0,0,0.00,,,0.30,WUHU216HW,2013-03-07 03:16:00,
2013-03-06 22:21:00,27.7,0.0,29.83,North,0,0.0,0.0,0,0.00,,,0.30,WUHU216HW,2013-03-07 03:21:00,
2013-03-06 22:26:00,27.9,0.0,29.84,North,0,0.0,0.0,0,0.00,,,0.30,WUHU216HW,2013-03-07 03:26:00,
2013-03-06 22:31:00,28.4,0.0,29.84,North,0,0.0,0.0,0,0.00,,,0.30,WUHU216HW,2013-03-07 03:31:00,
2013-03-06 22:36:00,28.4,0.0,29.84,North,0,0.0,0.0,0,0.00,,,0.30,WUHU216HW,2013-03-07 03:36:00,
2013-03-06 22:41:00,29.0,0.0,29.85,North,0,0.0,0.0,0,0.00,,,0.30,WUHU216HW,2013-03-07 03:41:00,
2013-03-06 22:46:00,29.2,0.0,29.84,North,0,0.0,0.0,0,0.00,,,0.30,WUHU216HW,2013-03-07 03:46:00,
2013-03-06 22:51:00,29.5,0.0,29.84,North,0,0.0,0.0,0,0.00,,,0.30,WUHU216HW,2013-03-07 03:51:00,
2013-03-06 22:56:00,29.7,0.0,29.85,North,0,0.0,0.0,0,0.00,,,0.30,WUHU216HW,2013-03-07 03:56:00,
2013-03-06 23:01:00,29.9,0.0,29.85,North,0,0.0,0.0,0,0.00,,,0.30,WUHU216HW,2013-03-07 04:01:00,
2013-03-06 23:06:00,30.2,0.0,29.85,North,0,0.0,0.0,0,0.00,,,0.30,WUHU216HW,2013-03-07 04:06:00,
2013-03-06 23:11:00,30.6,0.0,29.85,North,0,0.0,0.0,0,0.00,,,0.30,WUHU216HW,2013-03-07 04:11:00,
2013-03-06 23:16:00,31.0,0.0,29.85,North,0,0.0,0.0,0,0.00,,,0.30,WUHU216HW,2013-03-07 04:16:00,
2013-03-06 23:21:00,31.3,0.0,29.85,North,0,0.0,0.0,0,0.00,,,0.30,WUHU216HW,2013-03-07 04:21:00,
2013-03-06 23:26:00,31.7,0.0,29.86,North,0,0.0,0.0,0,0.00,,,0.30,WUHU216HW,2013-03-07 04:26:00,
2013-03-06 23:31:00,31.9,0.0,29.85,North,0,0.0,0.0,0,0.00,,,0.30,WUHU216HW,2013-03-07 04:31:00,
2013-03-06 23:36:00,32.0,0.0,29.86,North,0,0.0,0.0,0,0.00,,,0.30,WUHU216HW,2013-03-07 04:36:00,
2013-03-06 23:41:00,32.4,0.0,29.85,North,0,0.0,0.0,0,0.00,,,0.30,WUHU216HW,2013-03-07 04:41:00,
2013-03-06 23:46:00,32.4,0.0,29.85,North,0,0.0,0.0,0,0.00,,,0.30,WUHU216HW,2013-03-07 04:46:00,
2013-03-06 23:51:00,32.8,0.0,29.85,North,0,0.0,0.0,0,0.00,,,0.30,WUHU216HW,2013-03-07 04:51:00,
2013-03-06 23:56:00,32.8,0.0,29.85,North,0,0.0,0.0,0,0.00,,,0.30,WUHU216HW,2013-03-07 04:56:00,